Home   Weather   35°19'N, 81°11'W   Past weeks
Flag for USA

Past Weather in 35°19'N, 81°11'W, USA — Yesterday and Last 2 Weeks

Now
86 °F

Broken clouds.


Feels Like: 91 °F
Forecast: 84 / 70 °F
Wind: 7 mph from North

Location: Gastonia Municipal Airport

Current Time: Jun 19, 2019 at 5:29:24 pm

Latest Report: Jun 19, 2019 at 4:54 pm


Visibility: 10 mi

Pressure: 29.75 "Hg

Humidity: 59%

Dew Point: 70 °F

Location of 35°19'N, 81°11'WLocation

Past Weather in 35°19'N, 81°11'W — Graph

°F

35°19'N, 81°11'W Temperature Yesterday

Maximum temperature yesterday: 87 °F (at 2:54 pm)
Minimum temperature yesterday: 73 °F (at 2:28 am)
Average temperature yesterday: 79 °F

High & Low Weather Summary for the Past Weeks

 TemperatureHumidityPressure
High91 °F (Jun 17, 2:54 pm)91% (Jun 19, 7:31 am)30.23 "Hg (Jun 19, 7:31 am)
Low55 °F (Jun 15, 4:54 am)29% (Jun 14, 1:54 pm)29.76 "Hg (Jun 7, 4:54 pm)
Average75 °F72%29.97 "Hg
* Reported Jun 4 3:54 pm — Jun 19 3:54 pm, 35°19'N, 81°11'W. Weather by CustomWeather, © 2019

Note: Actual official high and low records may vary slightly from our data, if they occured in-between our weather recording intervals... More about our weather records

Advertising

35°19'N, 81°11'W Weather History for the Previous 24 Hours

Scroll right to see more
 ConditionsComfort  
Time TempWeatherWind HumidityBarometerVisibility
3:54 pm
Wed, Jun 19
86 °FScattered clouds.7 mph59%29.77 "Hg10 mi
2:54 pm85 °FPartly sunny.5 mph63%29.79 "Hg10 mi
1:54 pm81 °FPartly sunny.7 mph69%29.82 "Hg10 mi
12:54 pm81 °FMore clouds than sun.8 mph69%29.85 "Hg10 mi
11:54 am78 °FBroken clouds.6 mph76%29.86 "Hg10 mi
11:22 am78 °FBroken clouds.8 mph79%29.89 "Hg10 mi
10:59 am76 °FCloudy.9 mph82%29.90 "Hg10 mi
10:06 am74 °FMore clouds than sun.5 mph85%29.90 "Hg10 mi
9:54 am74 °FMostly cloudy.3 mph88%29.88 "Hg10 mi
9:30 am74 °FLow clouds.3 mph88%29.90 "Hg10 mi
8:54 am74 °FLow clouds.5 mph88%29.88 "Hg7 mi
8:24 am74 °FLight rain. Mostly cloudy.3 mph91%29.90 "Hg7 mi
7:54 am74 °FLight rain. Fog.3 mph88%29.88 "Hg4 mi
7:39 am74 °FFog.5 mph91%29.89 "Hg2 mi
7:31 am74 °FFog.3 mph91%29.89 "Hg1 mi
6:54 am73 °FFog.No wind90%29.86 "Hg0 mi
6:26 am73 °FFog.No wind90%29.89 "Hg0 mi
6:09 am73 °FFog.No wind90%29.89 "Hg1 mi
5:28 am73 °FFog.No wind88%29.89 "Hg6 mi
4:54 am73 °FFog.No wind88%29.85 "Hg6 mi
4:23 am73 °FFog.No wind88%29.88 "Hg6 mi
3:54 am73 °FFog.No wind88%29.86 "Hg4 mi
3:44 am73 °FFog.No wind88%29.88 "Hg4 mi
2:54 am73 °FFog.No wind90%29.87 "Hg6 mi
1:54 am74 °FClear.No wind85%29.90 "Hg10 mi
12:54 am74 °FPassing clouds.5 mph88%29.91 "Hg10 mi
12:32 am74 °FRain. Fog.3 mph88%29.94 "Hg3 mi
12:14 am75 °FHeavy rain. Passing clouds.7 mph82%29.96 "Hg2 mi
10:54 pm
Tue, Jun 18
78 °FPassing clouds.6 mph76%29.90 "Hg10 mi
9:54 pm78 °FPassing clouds.No wind82%29.90 "Hg10 mi
8:54 pm78 °FPassing clouds.No wind79%29.90 "Hg10 mi
7:54 pm82 °FSunny.No wind74%29.92 "Hg10 mi
6:54 pm83 °FSunny.No wind65%29.90 "Hg10 mi
5:54 pm84 °FSunny.3 mph61%29.90 "Hg10 mi
Weather by CustomWeather, © 2019

See weather overview